Flag for U.S.A. Weather past 2 weeks in Daly City, California, U.S.A.

Now
65 °F

Passing clouds.


Feels Like: 65 °F
Forecast: 61 / 71 °F
Wind: 12 mph from West

Location: San Francisco International Airport

Current Time: Aug 29, 2015 at 9:43:36 PM

Latest Report: Aug 29, 2015 at 8:56 PM


Visibility: 10 mi

Pressure: 30.01 "Hg

Humidity: 81%

Dew point: 59 °F

Location of Daly CityLocation

Historic Weather in Daly City — Graph

°F

Daly City temperature yesterday

Maximum temperature yesterday: 92 °F (at 1:56 PM)
Minimum temperature yesterday: 65 °F (at 3:56 AM)
Average temperature yesterday: 71 °F

Past Weeks' High & Low Weather Summary

 TemperatureHumidityPressure
High92 °F (Aug 15, 2:56 PM)91% (Aug 28, 8:56 PM)30.06 "Hg (Aug 28, 8:56 PM)
Low58 °F (Aug 25, 5:56 AM)27% (Aug 15, 2:56 PM)29.81 "Hg (Aug 16, 6:56 PM)
Average67 °F71%29.94 "Hg
* Reported Aug 14 7:56 PM — Aug 29 7:56 PM, Daly City, Weather by CustomWeather, © 2015

Note: Actual official high and low records may vary slightly from our data, if they occured in-between our weather recording intervals... More about our weather records

Advertising

Daly City weather history for previous 24 hours

 ConditionsComfort  
Time TempWeatherWind HumidityBarometerVisibility
7:56 PM
Sat, Aug 29
66 °FScattered clouds.13 mph75%29.99 "Hg10 mi
6:56 PM69 °FScattered clouds.13 mph66%29.99 "Hg10 mi
5:56 PM70 °FScattered clouds.13 mph68%30.00 "Hg10 mi
4:56 PM72 °FScattered clouds.13 mph64%30.00 "Hg10 mi
3:56 PM74 °FBroken clouds.16 mph60%30.00 "Hg10 mi
2:56 PM73 °FBroken clouds.13 mph64%30.01 "Hg10 mi
1:56 PM74 °FBroken clouds.9 mph62%30.01 "Hg10 mi
12:56 PM73 °FBroken clouds.7 mph64%30.01 "Hg10 mi
11:56 AM69 °FPartly sunny.12 mph79%30.01 "Hg10 mi
10:56 AM71 °FPartly sunny.9 mph76%30.00 "Hg10 mi
9:56 AM69 °FMostly cloudy.8 mph84%29.99 "Hg10 mi
8:56 AM69 °FMostly cloudy.No wind84%29.98 "Hg10 mi
7:56 AM67 °FMostly cloudy.6 mph87%29.97 "Hg10 mi
6:56 AM66 °FPassing clouds.5 mph90%29.95 "Hg8 mi
5:56 AM67 °FOvercast.No wind81%29.94 "Hg10 mi
4:56 AM67 °FPassing clouds.3 mph85%29.94 "Hg10 mi
3:56 AM67 °FPassing clouds.3 mph81%29.93 "Hg10 mi
2:56 AM67 °FPassing clouds.No wind85%29.93 "Hg10 mi
1:56 AM66 °FPassing clouds.No wind87%29.93 "Hg10 mi
12:56 AM65 °FPassing clouds.6 mph91%29.93 "Hg10 mi
11:56 PM
Fri, Aug 28
65 °FPassing clouds.9 mph91%29.91 "Hg10 mi
10:56 PM66 °FLow clouds.8 mph87%29.92 "Hg10 mi
9:56 PM66 °FPassing clouds.9 mph87%29.91 "Hg10 mi
Weather by CustomWeather, © 2015

See weather overviewHow to use our weather pages